Lid_Strength_Index
6 6 6 7 7 7 7 6 6 4 3 3 4 3 3 4 5 6 6 7 7 7
6 6 5 6 7 5 6 6 7 6 4 3 2 2 3 2 4 4 6 6 6 7
8 7 7 7 6 6 6 7 8 8 7 6 6 5 4 4 4 5 5 6 6 7
8 8 8 7 7 7 7 8 8 8 8 7 7 6 6 5 5 6 6 6 7 8
9 9 9 9 8 8 8 9 9 9 9 8 7 7 7 6 6 6 7 7 8 8
9 9 9 9 9 9 9 9 10 10 10 9 8 7 7 7 7 7 7 7 8 8
10 9 9 9 9 9 10 10 10 10 10 10 10 9 8 8 8 8 8 8 8 8
11 11 11 11 11 12 12 11 10 11 11 11 11 10 10 9 9 9 9 10 10 10
13 13 13 13 12 12 12 12 12 12 12 12 11 9 9 10 11 11 11 11 12 12
14 13 13 13 13 13 12 12 12 13 13 13 12 10 9 10 12 12 12 12 12 13
14 13 13 13 13 13 13 13 13 13 14 13 13 11 10 10 12 13 13 13 13 13
13 14 13 13 13 13 14 14 14 14 16 16 15 11 10 10 13 13 13 13 13 14
13 14 14 13 13 14 16 14 15 15 16 16 13 12 11 11 12 12 13 14 14 14
14 14 14 14 16 17 16 15 16 16 15 16 16 13 11 11 12 13 14 15 15 14